Weather History for Port Angeles, WA

Change the Weather History Date:

Monday, August 19, 2013

  Actual Average Record
Temperature  
Mean Temperature 62 °F -  
Max Temperature 69 °F 67 °F 84 °F (1966)
Min Temperature 55 °F 51 °F 43 °F (1951)
Degree Days  
Heating Degree Days 4    
Growing Degree Days 12 (Base 50)    
Moisture  
Dew Point 53 °F    
Average Humidity 74    
Maximum Humidity 90    
Minimum Humidity 56    
Precipitation  
Precipitation 0.00 in - - ()
Sea Level Pressure  
Sea Level Pressure 30.11 in    
Wind  
Wind Speed 6 mph (WNW)    
Max Wind Speed 15 mph    
Max Gust Speed 23 mph    
Visibility 10 miles    
Events      
Averages and records for this station are not official NWS values.
T = Trace of Precipitation, MM = Missing Value Source: NWS Daily Summary

Daily Weather History Graph

Daily Weather History Graph

Search for Another Location

Airport:

Trip Planner

Search our weather history database for the weather conditions in past years. The results will help you decide how hot, cold, wet, or windy it might be!

Date:

Astronomy

Aug. 19, 2013 Rise Set
Actual Time 6:14 AM PDT 8:19 PM PDT
Civil Twilight 5:40 AM PDT 8:53 PM PDT
Nautical Twilight 4:58 AM PDT 9:34 PM PDT
Astronomical Twilight 4:11 AM PDT 10:21 PM PDT
Moon 7:13 PM PDT (8/19) 4:37 AM PDT (8/19)
Length of Visible Light 15h 12m
Length of Day
14h 05m
Waxing Gibbous, 98% of the Moon is Illuminated
Aug 19
Waxing Gibbous
Aug 20
Full
Aug 28
Last Quarter
Sep 5
New
Sep 12
First Quarter

Hourly Weather History & Observations

Time (PDT) Temp. Dew Point Humidity Pressure Visibility Wind Dir Wind Speed Gust Speed Precip Events Conditions
12:53 AM 57.9 °F 54.0 °F 87% 30.09 in 10.0 mi WNW 3.5 mph - N/A   Overcast
1:53 AM 57.0 °F 53.1 °F 87% 30.08 in 10.0 mi Calm Calm - N/A   Clear
2:53 AM 55.9 °F 53.1 °F 90% 30.08 in 10.0 mi WSW 4.6 mph - N/A   Partly Cloudy
3:53 AM 57.0 °F 54.0 °F 89% 30.07 in 10.0 mi WNW 3.5 mph - N/A   Overcast
4:53 AM 57.9 °F 54.0 °F 87% 30.08 in 10.0 mi Calm Calm - N/A   Overcast
5:53 AM 57.9 °F 54.0 °F 87% 30.08 in 10.0 mi SW 3.5 mph - N/A   Overcast
6:53 AM 57.9 °F 54.0 °F 87% 30.09 in 10.0 mi SW 4.6 mph - N/A   Overcast
7:53 AM 61.0 °F 54.0 °F 78% 30.09 in 10.0 mi Calm Calm - N/A   Overcast
8:53 AM 63.0 °F 54.0 °F 72% 30.10 in 10.0 mi West 3.5 mph - N/A   Overcast
9:53 AM 66.0 °F 54.0 °F 65% 30.10 in 10.0 mi North 8.1 mph - N/A   Mostly Cloudy
10:53 AM 64.9 °F 53.1 °F 65% 30.11 in 10.0 mi NNW 5.8 mph - N/A   Overcast
11:53 AM 66.9 °F 52.0 °F 59% 30.13 in 10.0 mi Variable 6.9 mph - N/A   Overcast
12:53 PM 68.0 °F 52.0 °F 56% 30.13 in 10.0 mi NW 10.4 mph - N/A   Scattered Clouds
1:53 PM 66.9 °F 55.0 °F 66% 30.14 in 10.0 mi NW 9.2 mph - N/A   Mostly Cloudy
2:41 PM 63.0 °F 55.0 °F 75% 30.14 in 10.0 mi NW 5.8 mph - N/A   Overcast
2:53 PM 63.0 °F 55.0 °F 75% 30.14 in 10.0 mi WNW 5.8 mph - N/A   Overcast
3:34 PM 63.0 °F 55.9 °F 78% 30.14 in 10.0 mi NW 10.4 mph - N/A   Overcast
3:53 PM 64.0 °F 55.9 °F 75% 30.14 in 10.0 mi WNW 6.9 mph - N/A   Overcast
4:53 PM 66.9 °F 53.1 °F 61% 30.13 in 10.0 mi NW 12.7 mph - N/A   Scattered Clouds
5:53 PM 64.9 °F 52.0 °F 63% 30.13 in 10.0 mi WNW 12.7 mph 21.9 mph N/A   Clear
6:53 PM 64.0 °F 50.0 °F 60% 30.12 in 10.0 mi West 11.5 mph 23.0 mph N/A   Clear
7:53 PM 61.0 °F 50.0 °F 67% 30.11 in 10.0 mi West 15.0 mph - N/A   Clear
8:53 PM 59.0 °F 50.0 °F 72% 30.13 in 10.0 mi West 13.8 mph - N/A   Clear
9:53 PM 57.9 °F 48.9 °F 72% 30.14 in 10.0 mi West 8.1 mph - N/A   Clear
10:53 PM 59.0 °F 48.9 °F 69% 30.14 in 10.0 mi WNW 12.7 mph - N/A   Clear
11:53 PM 57.0 °F 48.9 °F 74% 30.14 in 10.0 mi West 11.5 mph - N/A   Clear